User: anonymous   Login
Location: Darlington Observatory
(36.4817°N, 105.8156°W)
Time: 13:21:21
(UTC-06:00)
Language:

NOSS 3-3 (A) - Orbit

View from above orbital plane
View from above orbital plane
View from above satellite
View from above satellite

Ground track
Ground track

The orbit data is extracted from the following two-line orbital elements,

1 28537U 05004A   16161.85086834 0.00000000  00000-0  00000-0 0    04
2 28537  63.4284  57.2375 0233000 358.1526   1.8474 13.40709185    03
Epoch (UTC): 09 June 2016 20:25:15
Eccentricity: 0.0233000
inclination: 63.4284°
perigee height: 932 km
apogee height: 1281 km
right ascension of ascending node: 57.2375°
argument of perigee: 358.1526°
revolutions per day: 13.40709185
mean anomaly at epoch: 1.8474°
orbit number at epoch: 0

The dashed part of the orbit path shows where the satellite is in the earth's shadow,  

DLR